EW1979 Weather Reports


time (UTC)temp
C
wind
direction
speed
KPH
gust
KPH
rain 1hr
cm
rain 24hr
cm
rain mn
cm
humidity
%
barometer
mb
20260902083006 23 157 4.8 0.0 0.00 0.00 0.00 74 1011.0
20260902081506 24 168 4.8 0.0 0.00 0.00 0.00 73 1011.1
20260902080007 24 190 4.8 0.0 0.00 0.00 0.00 71 1010.9
20260902074502 25 150 4.8 0.0 0.00 0.00 0.00 69 1011.0
20260902073006 25 147 4.8 0.0 0.00 0.00 0.00 69 1010.9
20260902071506 25 191 3.2 0.0 0.00 0.00 0.00 68 1010.9
20260902070104 25 167 3.2 0.0 0.00 0.00 0.00 68 1010.9
20260902064507 25 165 4.8 0.0 0.00 0.00 0.00 68 1010.8
20260902063108 25 169 4.8 0.0 0.00 0.00 0.00 68 1010.9
20260902060007 26 156 4.8 0.0 0.00 0.00 0.00 67 1010.8
20260902054507 26 150 4.8 0.0 0.00 0.00 0.00 67 1010.9
20260902053102 26 139 3.2 0.0 0.00 0.00 0.00 67 1010.8
20260902050008 26 150 4.8 0.0 0.00 0.00 0.00 65 1010.6
20260902043009 27 132 4.8 0.0 0.00 0.00 0.00 63 1010.5
20260902040008 27 89 4.8 0.0 0.00 0.00 0.00 61 1010.6
20260902034505 28 105 3.2 0.0 0.00 0.00 0.00 59 1010.5
20260902033006 28 109 3.2 0.0 0.00 0.00 0.00 58 1010.4
20260902031502 28 90 1.6 0.0 0.00 0.00 0.00 57 1010.3
20260902030105 28 128 1.6 0.0 0.00 0.00 0.00 55 1010.1
20260902024602 28 115 1.6 0.0 0.00 0.00 0.00 54 1010.2
20260902023006 28 116 0.0 0.0 0.00 0.00 0.00 53 1009.9
20260902021634 28 146 0.0 0.0 0.00 0.00 0.00 53 1009.7
20260902014616 28 121 0.0 0.0 0.00 0.00 0.00 53 1009.4
20260902013104 28 121 0.0 0.0 0.00 0.00 0.00 53 1009.3
20260902010003 30 121 0.0 0.0 0.00 0.00 0.00 49 1009.3
20260902004505 31 120 0.0 0.0 0.00 0.00 0.00 48 1009.2
20260902003007 32 120 1.6 0.0 0.00 0.00 0.00 45 1009.2
20260902001604 32 113 1.6 0.0 0.00 0.00 0.00 44 1009.1
20260902000105 32 128 1.6 0.0 0.00 0.00 0.00 43 1009.0
20260901234609 33 126 4.8 0.0 0.00 0.00 0.00 43 1009.1
20260901233007 33 151 3.2 0.0 0.00 0.00 0.00 41 1008.9
20260901231506 34 119 3.2 0.0 0.00 0.00 0.00 40 1008.8
20260901230003 35 115 3.2 0.0 0.00 0.00 0.00 38 1008.8
20260901224506 35 168 3.2 0.0 0.00 0.00 0.00 38 1008.7
20260901223111 35 172 4.8 0.0 0.00 0.00 0.00 37 1008.9
20260901221509 35 113 3.2 0.0 0.00 0.00 0.00 37 1008.7
20260901220007 34 176 6.4 0.0 0.00 0.00 0.00 37 1008.9
20260901214518 35 144 3.2 0.0 0.00 0.00 0.00 37 1008.7
20260901211502 34 94 3.2 0.0 0.00 0.00 0.00 38 1009.3
20260901210002 33 163 3.2 0.0 0.00 0.00 0.00 41 1009.6
20260901204504 34 268 3.2 0.0 0.00 0.00 0.00 39 1009.8
20260901203015 33 335 1.6 0.0 0.00 0.00 0.00 41 1010.0
20260901201503 34 119 4.8 0.0 0.00 0.00 0.00 39 1010.1
20260901200006 35 10 4.8 0.0 0.00 0.00 0.00 38 1010.2
20260901193106 34 80 3.2 0.0 0.00 0.00 0.00 39 1010.5
20260901191607 33 53 4.8 0.0 0.00 0.00 0.00 42 1010.8
20260901190008 33 202 4.8 0.0 0.00 0.00 0.00 40 1011.0
20260901183006 33 134 6.4 0.0 0.00 0.00 0.00 43 1011.4
20260901181604 32 92 4.8 0.0 0.00 0.00 0.00 44 1011.7
20260901174506 33 154 4.8 0.0 0.00 0.00 0.00 44 1012.1
20260901173005 32 158 4.8 0.0 0.00 0.00 0.00 46 1012.3
20260901171511 31 180 3.2 0.0 0.00 0.00 0.00 47 1012.5
20260901170006 31 168 4.8 0.0 0.00 0.00 0.00 46 1012.6
20260901164517 31 82 6.4 0.0 0.00 0.00 0.00 46 1012.4
20260901163004 31 121 4.8 0.0 0.00 0.00 0.00 45 1012.6
20260901161510 31 195 3.2 0.0 0.00 0.00 0.00 49 1012.8
20260901160002 30 217 4.8 0.0 0.00 0.00 0.00 50 1012.8
20260901154510 30 119 4.8 0.0 0.00 0.00 0.00 52 1012.7
20260901153006 29 159 3.2 0.0 0.00 0.00 0.00 55 1012.7
20260901150123 27 173 4.8 0.0 0.00 0.00 0.00 59 1012.8
20260901144603 27 130 3.2 0.0 0.00 0.00 0.00 63 1012.7
20260901143007 26 197 4.8 0.0 0.00 0.00 0.00 70 1012.6
20260901141505 26 198 6.4 0.0 0.00 0.00 0.00 72 1012.7
20260901140002 25 209 4.8 0.0 0.00 0.00 0.00 77 1012.7
20260901133109 23 180 4.8 0.0 0.00 0.00 0.00 86 1012.7
20260901131507 23 196 3.2 0.0 0.00 0.00 0.00 90 1012.8
20260901130005 22 205 3.2 0.0 0.00 0.00 0.00 92 1012.7
20260901124603 22 209 0.0 0.0 0.00 0.00 0.00 92 1012.6
20260901123008 22 209 0.0 0.0 0.00 0.00 0.00 91 1012.5
20260901121502 22 209 1.6 0.0 0.00 0.00 0.00 91 1012.2
20260901120121 22 151 1.6 0.0 0.00 0.00 0.00 91 1012.3
20260901114603 22 169 3.2 0.0 0.00 0.00 0.00 90 1012.1
20260901113007 22 205 4.8 0.0 0.00 0.00 0.00 90 1011.8
20260901110010 22 209 6.4 0.0 0.00 0.00 0.00 90 1011.5
20260901104512 22 199 4.8 0.0 0.00 0.00 0.00 89 1011.7
20260901103009 22 194 6.4 0.0 0.00 0.00 0.00 89 1011.7
20260901101608 23 180 6.4 0.0 0.00 0.00 0.00 88 1011.7
20260901100006 23 186 8.0 0.0 0.00 0.00 0.00 88 1011.8
20260901093001 23 175 8.0 0.0 0.00 0.00 0.00 87 1011.8